This demonstration page uses our WeatherBlox Daily Observations layout. Learn more.

Left ArrowRight Arrow

Hourly Observations for May 2, 2015

Temp ( °F °C ) Dew Point ( °F °C ) Humidity (%) Winds ( mph kmh ) Pressure ( in mb ) Visibility ( mi km ) Precip ( " mm )
12:51 am 00:51 Clear 71 21.7 32 0 24 24 NNE 7 11 29.74 1007 10 16 0.00 0.00
1:51 am 01:51 Clear 65 18.3 33 0.6 31 31 SW 3 6 29.74 1007 10 16 0.00 0.00
2:51 am 02:51 Clear 62 16.7 33 0.6 34 34 Calm 29.75 1007 10 16 0.00 0.00
3:51 am 03:51 Clear 58 14.4 33 0.6 39 39 SE 6 9 29.75 1007 10 16 0.00 0.00
4:51 am 04:51 Clear 58 14.4 33 0.6 39 39 Calm 29.76 1008 10 16 0.00 0.00
5:51 am 05:51 Sunny 59 15 35 1.7 41 41 E 3 6 29.78 1009 10 16 0.00 0.00
6:51 am 06:51 Sunny 64 17.8 36 2.2 35 35 SE 3 6 29.80 1009 10 16 0.00 0.00
7:51 am 07:51 Sunny 71 21.7 36 2.2 28 28 S 5 7 29.80 1009 10 16 0.00 0.00
8:51 am 08:51 Sunny 77 25 33 0.6 20 20 S 5 7 29.80 1009 10 16 0.00 0.00
9:51 am 09:51 Sunny 81 27.2 31 -0.6 16 16 VRB 3 6 29.80 1009 10 16 0.00 0.00
10:51 am 10:51 Sunny 82 27.8 30 -1.1 15 15 WNW 12 19 29.77 1008 10 16 0.00 0.00
11:51 am 11:51 Sunny 88 31.1 31 -0.6 13 13 VRB 6 9 29.75 1007 10 16 0.00 0.00
12:51 pm 12:51 Sunny 89 31.7 29 -1.7 11 11 undefined N/A 29.71 1006 10 16 0.00 0.00
1:51 pm 13:51 Sunny 90 32.2 29 -1.7 11 11 undefined N/A 29.69 1005 10 16 0.00 0.00
2:51 pm 14:51 Sunny 91 32.8 28 -2.2 10 10 SSW 10 17 29.66 1004 10 16 0.00 0.00
3:51 pm 15:51 Sunny 91 32.8 28 -2.2 10 10 VRB 3 6 29.64 1004 10 16 0.00 0.00
4:51 pm 16:51 Sunny 89 31.7 27 -2.8 11 11 W 12 19 29.65 1004 10 16 0.00 0.00
5:51 pm 17:51 Sunny 88 31.1 28 -2.2 11 11 WNW 17 28 29.65 1004 10 16 0.00 0.00
6:36 pm 18:36 Sunny 85 29.4 31 -0.6 14 14 SSW 21 33 29.56 1001 10 16 0.00 0.00
6:51 pm 18:51 Sunny 84 28.9 32 0 15 15 SSW 13 20 29.68 1005 10 16 0.00 0.00
7:51 pm 19:51 Mostly Clear 82 27.8 32 0 16 16 E 12 19 29.71 1006 10 16 0.00 0.00
8:51 pm 20:51 Clear 80 26.7 33 0.6 18 18 NE 7 11 29.72 1006 10 16 0.00 0.00
9:51 pm 21:51 Partly Cloudy 79 26.1 33 0.6 19 19 NNE 8 13 29.72 1006 10 16 0.00 0.00
10:51 pm 22:51 Clear 78 25.6 32 0 19 19 WNW 5 7 29.72 1007 10 16 0.00 0.00
11:51 pm 23:51 Clear 74 23.3 36 2.2 25 25 S 7 11 29.74 1007 10 16 0.00 0.00

Powered by AerisWeather